Kitsissuarsuit Heliport


Codes: BGKT/QJE
Name: Kitsissuarsuit Heliport
City: Kitsissuarsuit
Country: Greenland
Elevation: 18 ft.
Wikipedia:

Photos at Kitsissuarsuit Heliport


   Photos courtesy of SpottingLog. You can add your own sightings and photos by signing up for a free trial today.



No photos found.

Weather at Kitsissuarsuit Heliport


Time (UTC)DescriptionTempratureWindCloud coverageVisibilityPressureHumidity
16-Jun-2024 00:00Scattered Clouds4°C4 mph, N34%10000m1015hPa84%
16-Jun-2024 03:00Scattered Clouds4°C7 mph, E28%10000m1015hPa85%
16-Jun-2024 06:00Scattered Clouds3°C4 mph, E28%10000m1014hPa90%
16-Jun-2024 09:00Clear Sky3°C7 mph, NE9%10000m1014hPa90%
16-Jun-2024 12:00Clear Sky3°C9 mph, NE9%10000m1013hPa88%
16-Jun-2024 15:00Clear Sky3°C9 mph, NE6%10000m1012hPa90%
16-Jun-2024 18:00Clear Sky4°C4 mph, NE4%10000m1011hPa84%
16-Jun-2024 21:00Clear Sky4°C7 mph, SW1%10000m1012hPa85%
17-Jun-2024 00:00Scattered Clouds3°C4 mph, NW28%10000m1011hPa87%
17-Jun-2024 03:00Broken Clouds2°C2 mph, NW59%10000m1009hPa85%
17-Jun-2024 06:00Broken Clouds3°C4 mph, N71%10000m1006hPa82%
17-Jun-2024 09:00Overcast Clouds4°C9 mph, N96%10000m1003hPa84%
17-Jun-2024 12:00Overcast Clouds3°C11 mph, NE98%10000m1001hPa88%
17-Jun-2024 15:00Overcast Clouds5°C16 mph, NE100%10000m1000hPa77%
17-Jun-2024 18:00Overcast Clouds4°C9 mph, SE100%10000m1000hPa84%
17-Jun-2024 21:00Overcast Clouds3°C22 mph, SW100%10000m1005hPa89%
18-Jun-2024 00:00Overcast Clouds3°C11 mph, SW100%10000m1010hPa90%
18-Jun-2024 03:00Overcast Clouds2°C4 mph, SW100%10000m1011hPa91%
18-Jun-2024 06:00Overcast Clouds2°C4 mph, W100%10000m1011hPa88%
18-Jun-2024 09:00Light Rain2°C7 mph, N100%10000m1011hPa89%
18-Jun-2024 12:00Light Rain2°C13 mph, NE100%10000m1011hPa92%
18-Jun-2024 15:00Broken Clouds3°C18 mph, NE78%10000m1010hPa92%
18-Jun-2024 18:00Broken Clouds3°C7 mph, N71%10000m1010hPa90%
18-Jun-2024 21:00Overcast Clouds3°C13 mph, NW100%10000m1011hPa90%
19-Jun-2024 00:00Overcast Clouds3°C11 mph, NW96%10000m1010hPa88%
19-Jun-2024 03:00Scattered Clouds2°C9 mph, NW48%10000m1009hPa89%
19-Jun-2024 06:00Scattered Clouds2°C9 mph, NW32%10000m1009hPa91%
19-Jun-2024 09:00Clear Sky2°C7 mph, N8%10000m1009hPa88%
19-Jun-2024 12:00Clear Sky2°C7 mph, NE10%10000m1008hPa89%
19-Jun-2024 15:00Clear Sky3°C7 mph, NE4%10000m1008hPa81%
19-Jun-2024 18:00Clear Sky3°C7 mph, NE3%10000m1007hPa78%
19-Jun-2024 21:00Clear Sky3°C7 mph, N1%10000m1006hPa81%
20-Jun-2024 00:00Few Clouds4°C7 mph, N18%10000m1005hPa80%
20-Jun-2024 03:00Overcast Clouds3°C7 mph, W98%10000m1005hPa80%
20-Jun-2024 06:00Overcast Clouds2°C11 mph, W99%10000m1006hPa94%
20-Jun-2024 09:00Overcast Clouds1°C9 mph, W100%6029m1006hPa97%
20-Jun-2024 12:00Overcast Clouds1°C7 mph, NW100%10000m1005hPa97%
20-Jun-2024 15:00Overcast Clouds1°C7 mph, N100%10000m1004hPa95%
20-Jun-2024 18:00Overcast Clouds2°C4 mph, N100%9382m1002hPa93%
20-Jun-2024 21:00Overcast Clouds2°C7 mph, NW96%10000m1000hPa90%